Regional Weather Roundup
Issued by NWS Nashville, TN

Home | Current Version | Previous Version | Text Only | Print | Product List | Glossary On
Versions: 1 2 3 4 5 6 7 8 9 10 11 12 13 14 15 16 17 18 19 20 21 22 23 24 25 26 27 28 29 30 31 32 33 34 35 36 37 38 39 40 41 42 43 44 45 46 47 48 49 50
000
ASUS44 KOHX 031315
RWROHX
MIDDLE TENNESSEE HOURLY WEATHER ROUNDUP
NATIONAL WEATHER SERVICE NASHVILLE TN
800 AM CDT WED JUN 03 2015

NOTE: "FAIR" INDICATES FEW OR NO CLOUDS BELOW 12,000 FEET WITH
NO SIGNIFICANT WEATHER AND/OR OBSTRUCTIONS TO VISIBILITY.

* THESE REPORTS ARE NOT UNDER NWS QUALITY CONTROL AND MAY NOT
  REPORT WEATHER SUCH AS PRECIPITATION AND FOG.


TNZ005>011-023>034-057-059-062>066-078-080-031400
...NORTHERN MIDDLE TENNESSEE...

CITY           SKY/WX    TMP DP  RH WIND       PRES   REMARKS
CASTALIAN SPRG   N/A     68  59  73 NE6       29.85R
CLARKSVILLE    SUNNY     63  56  78 NE7       30.04S
CROSSVILLE     CLOUDY    62  57  83 E5        30.05R
GLADEVILLE*      N/A     63  59  88 NE2       30.00S
JOELTON*         N/A     63  59  88 E1        29.99R
LIVINGSTON     CLOUDY    61  57  86 CALM      30.05
MOUNT JULIET*    N/A    N/A N/A N/A CALM      29.89S
NASHVILLE      PTSUNNY   63  58  83 E6        30.05R
OLD HICKORY*     N/A    N/A N/A N/A CALM      29.68R
PORTLAND       CLOUDY    59  55  88 VRB3      30.04
ROCKWOOD       MOSUNNY   64  60  87 E3        30.04R
SMYRNA         PTSUNNY   62  58  87 NE7       30.05S
SPARTA         CLOUDY    63  59  88 N3        30.03S
$$
TNZ056-058-060-061-075>077-079-093>097-031400
...SOUTHERN MIDDLE TENNESSEE...

CITY           SKY/WX    TMP DP  RH WIND       PRES   REMARKS
COLUMBIA       CLOUDY    63  59  88 N5        30.02S
LEWISBURG      CLOUDY    63  58  83 N3        30.02S
MANCHESTER*      N/A     64  19  17 CALM      29.98S
MCMINNVILLE    CLOUDY    63  63 100 NE7       30.03S
MOUNT PLEASANT   N/A    N/A N/A N/A CALM      29.97R
SHELBYVILLE    CLOUDY    63  61  94 N6        30.04S
TULLAHOMA      CLOUDY    63  59  88 N3        30.03S
WINCHESTER     MOSUNNY   66  61  82 CALM      30.02S
$$


...KEY TO REMARKS...
VSB - VISIBILITY IN MILES
WCI - WIND CHILL INDEX
HX  - HEAT INDEX




USA.gov is the U.S. government's official web portal to all federal, state and local government web resources and services.